User: anonymous   Login
Location: Carrizo Plain National Monument
(35.0903°N, 119.7316°W)
Time: 18:28:44
(UTC-07:00)
Language:

Oscar 19 - Orbit

View from above orbital plane
View from above orbital plane
View from above satellite
View from above satellite

Ground track
Ground track

The orbit data is extracted from the following two-line orbital elements,

1 20442U 90005G   20093.12281144 +.00000014 +00000-0 +21404-4 0  9993
2 20442 098.6846 040.1454 0012268 024.8141 335.3631 14.32948789577628
Epoch (UTC): 02 April 2020 02:56:50
Eccentricity: 0.0012268
inclination: 98.6846°
perigee height: 773 km
apogee height: 790 km
right ascension of ascending node: 40.1454°
argument of perigee: 24.8141°
revolutions per day: 14.32948789
mean anomaly at epoch: 335.3631°
orbit number at epoch: 57762

The dashed part of the orbit path shows where the satellite is in the earth's shadow,  

DLR